UAE722 OMDB-HKJK

Flight info

Callsign UAE722
Flight time 4h 20m
Altitude 34000
Route ANVIX R401 GIDIS G783 UKRAG/N0489F350 L710 KUKDI/N0485F340 B400 NODMA/N0487F360 B400 RIGAM B403 BOMIX UB403 MAV UP312 WAV WAJI1A
Aircraft B77W/H-SDE1E2E3FGHIJ2J3J4J5M1RWXY/LB1D1

Departure

Time 2026-04-26 15:43
Airport Dubai International Airport (OMDB)

Arrival

Time 2026-04-26 20:03
Airport Jomo Kenyatta International Airport (HKJK)
Time Latitude Longitude Altitude Speed Heading
2026-04-26 14:58 25.24134 55.37563 26 ft 0 kts 301°
2026-04-26 15:32 25.24128 55.37575 26 ft 4 kts 301°
2026-04-26 15:32 25.24116 55.37596 30 ft 2 kts 301°
2026-04-26 15:33 25.24102 55.37620 27 ft 4 kts 304°
2026-04-26 15:33 25.24086 55.37642 29 ft 4 kts 332°
2026-04-26 15:33 25.24067 55.37643 29 ft 4 kts 31°
2026-04-26 15:33 25.24044 55.37627 26 ft 4 kts 31°
2026-04-26 15:34 25.24038 55.37624 26 ft 0 kts 31°
2026-04-26 15:37 25.24077 55.37649 29 ft 12 kts 31°
2026-04-26 15:37 25.24157 55.37703 26 ft 14 kts 31°
2026-04-26 15:38 25.24245 55.37762 26 ft 15 kts 31°
2026-04-26 15:38 25.24322 55.37815 26 ft 9 kts 33°
2026-04-26 15:38 25.24354 55.37839 27 ft 0 kts 33°
2026-04-26 15:40 25.24358 55.37841 26 ft 5 kts 33°
2026-04-26 15:40 25.24454 55.37915 29 ft 26 kts 34°
2026-04-26 15:40 25.24574 55.38005 28 ft 18 kts 34°
2026-04-26 15:41 25.24642 55.38054 27 ft 5 kts 32°
2026-04-26 15:41 25.24643 55.38054 28 ft 0 kts 32°
2026-04-26 15:41 25.24644 55.38054 28 ft 1 kts 32°
2026-04-26 15:41 25.24677 55.38078 29 ft 7 kts 32°
2026-04-26 15:42 25.24735 55.38099 31 ft 14 kts 354°
2026-04-26 15:42 25.24797 55.38039 30 ft 8 kts 302°
2026-04-26 15:42 25.24881 55.37891 30 ft 58 kts 302°
2026-04-26 15:42 25.25260 55.37207 32 ft 148 kts 301°
2026-04-26 15:43 25.25930 55.36007 236 ft 204 kts 303°
2026-04-26 15:43 25.26754 55.34661 956 ft 211 kts 302°
2026-04-26 15:43 25.28220 55.31976 3039 ft 194 kts 300°
2026-04-26 15:44 25.28907 55.30709 3745 ft 194 kts 298°
2026-04-26 15:44 25.28794 55.27657 4022 ft 218 kts 248°
2026-04-26 15:44 25.28143 55.26143 4572 ft 220 kts 248°
2026-04-26 15:45 25.26823 55.23034 5875 ft 229 kts 249°
2026-04-26 15:45 25.26141 55.21420 6505 ft 234 kts 249°
2026-04-26 15:46 25.24688 55.18168 6972 ft 238 kts 235°
2026-04-26 15:46 25.23351 55.17014 7016 ft 257 kts 205°
2026-04-26 15:46 25.21534 55.16705 7022 ft 272 kts 181°
2026-04-26 15:46 25.20280 55.16839 6999 ft 276 kts 171°
2026-04-26 15:47 25.18039 55.18252 7451 ft 294 kts 132°
2026-04-26 15:47 25.15970 55.22334 8435 ft 314 kts 117°
2026-04-26 15:47 25.14962 55.24456 9215 ft 316 kts 118°
2026-04-26 15:48 25.13933 55.26608 10009 ft 318 kts 118°
2026-04-26 15:48 25.12893 55.28770 10832 ft 319 kts 118°
2026-04-26 15:48 25.11850 55.30935 11678 ft 320 kts 119°
2026-04-26 15:48 25.10810 55.33102 12548 ft 320 kts 119°
2026-04-26 15:49 25.09842 55.35319 13354 ft 322 kts 116°
2026-04-26 15:49 25.08922 55.37591 14068 ft 327 kts 116°
2026-04-26 15:49 25.07985 55.39906 14756 ft 335 kts 116°
2026-04-26 15:49 25.06998 55.42331 15012 ft 359 kts 115°
2026-04-26 15:50 25.05987 55.44941 15202 ft 382 kts 114°
2026-04-26 15:50 25.04931 55.47718 15442 ft 401 kts 114°
2026-04-26 15:50 25.03834 55.50594 15957 ft 412 kts 114°
2026-04-26 15:50 25.02704 55.53533 16578 ft 419 kts 114°
2026-04-26 15:51 25.01525 55.56480 17285 ft 422 kts 118°
2026-04-26 15:51 25.00078 55.59303 17981 ft 424 kts 124°
2026-04-26 15:51 24.98489 55.62060 18675 ft 428 kts 124°
2026-04-26 15:51 24.96892 55.64853 19333 ft 433 kts 124°
2026-04-26 15:52 24.95319 55.67707 19971 ft 438 kts 123°
2026-04-26 15:52 24.93738 55.70601 20593 ft 443 kts 125°
2026-04-26 15:52 24.91989 55.73400 21195 ft 446 kts 129°
2026-04-26 15:52 24.90731 55.75253 21621 ft 448 kts 130°
2026-04-26 15:53 24.88215 55.78892 22364 ft 454 kts 129°
2026-04-26 15:53 24.86323 55.81690 22899 ft 458 kts 129°
2026-04-26 15:53 24.84432 55.84534 23454 ft 462 kts 129°
2026-04-26 15:53 24.82522 55.87402 23966 ft 466 kts 129°
2026-04-26 15:54 24.80520 55.90197 24355 ft 465 kts 137°
2026-04-26 15:54 24.77930 55.92290 24612 ft 463 kts 158°
2026-04-26 15:54 24.74913 55.93464 25096 ft 459 kts 171°
2026-04-26 15:54 24.71765 55.93811 25610 ft 454 kts 185°
2026-04-26 15:55 24.68615 55.93629 26092 ft 455 kts 187°
2026-04-26 15:55 24.65434 55.93457 26515 ft 459 kts 186°
2026-04-26 15:55 24.62268 55.93054 26804 ft 459 kts 197°
2026-04-26 15:55 24.59257 55.91886 27172 ft 459 kts 208°
2026-04-26 15:56 24.56518 55.90115 27654 ft 456 kts 220°
2026-04-26 15:56 24.54118 55.87850 28049 ft 455 kts 224°
2026-04-26 15:56 24.51762 55.85501 28396 ft 460 kts 224°
2026-04-26 15:56 24.49381 55.83140 28765 ft 463 kts 224°
2026-04-26 15:57 24.46953 55.80767 28833 ft 469 kts 224°
2026-04-26 15:57 24.42071 55.76070 28884 ft 464 kts 223°
2026-04-26 15:58 24.37218 55.71425 28906 ft 463 kts 223°
2026-04-26 15:58 24.32373 55.66750 28913 ft 465 kts 224°
2026-04-26 15:59 24.27338 55.62285 28896 ft 469 kts 214°
2026-04-26 15:59 24.21478 55.59192 28919 ft 475 kts 201°
2026-04-26 16:00 24.15082 55.57298 28915 ft 477 kts 197°
2026-04-26 16:00 24.08663 55.55469 28909 ft 477 kts 198°
2026-04-26 16:01 24.02254 55.53574 28907 ft 477 kts 198°
2026-04-26 16:01 23.95858 55.51673 28902 ft 476 kts 198°
2026-04-26 16:02 23.89464 55.49768 28910 ft 476 kts 198°
2026-04-26 16:02 23.83065 55.47865 28906 ft 477 kts 198°
2026-04-26 16:03 23.76659 55.45957 28899 ft 477 kts 198°
2026-04-26 16:03 23.70251 55.44047 28911 ft 479 kts 198°
2026-04-26 16:03 23.67024 55.43094 29218 ft 482 kts 197°
2026-04-26 16:04 23.63704 55.42445 29614 ft 487 kts 188°
2026-04-26 16:04 23.60302 55.42295 30015 ft 492 kts 182°
2026-04-26 16:04 23.56869 55.42523 30331 ft 497 kts 176°
2026-04-26 16:04 23.53430 55.43147 30551 ft 504 kts 172°
2026-04-26 16:05 23.49974 55.43879 30731 ft 509 kts 172°
2026-04-26 16:05 23.46481 55.44629 30935 ft 513 kts 172°
2026-04-26 16:05 23.42976 55.45370 31184 ft 515 kts 172°
2026-04-26 16:05 23.39444 55.46103 31398 ft 517 kts 172°
2026-04-26 16:06 23.35899 55.46828 31618 ft 520 kts 172°
2026-04-26 16:06 23.32341 55.47549 31887 ft 521 kts 172°
2026-04-26 16:06 23.28774 55.48268 32167 ft 522 kts 173°
2026-04-26 16:06 23.25245 55.48978 32433 ft 523 kts 173°
2026-04-26 16:07 23.21615 55.49710 32666 ft 525 kts 173°
2026-04-26 16:07 23.18069 55.50426 32909 ft 526 kts 173°
2026-04-26 16:07 23.14468 55.51152 33176 ft 527 kts 173°
2026-04-26 16:07 23.10857 55.51879 33423 ft 528 kts 173°
2026-04-26 16:08 23.07244 55.52606 33649 ft 529 kts 172°
2026-04-26 16:08 23.04796 55.53103 33767 ft 531 kts 172°
2026-04-26 16:08 23.00007 55.54364 33883 ft 536 kts 167°
2026-04-26 16:09 22.92918 55.56578 33880 ft 525 kts 166°
2026-04-26 16:09 22.85911 55.58766 33893 ft 523 kts 167°
2026-04-26 16:10 22.78899 55.60910 33897 ft 523 kts 167°
2026-04-26 16:10 22.71881 55.63046 33873 ft 525 kts 167°
2026-04-26 16:11 22.64855 55.65181 33880 ft 524 kts 166°
2026-04-26 16:11 22.57830 55.67328 33882 ft 525 kts 166°
2026-04-26 16:12 22.50795 55.69482 33882 ft 525 kts 166°
2026-04-26 16:12 22.40237 55.72716 33879 ft 526 kts 166°
2026-04-26 16:13 22.33203 55.74871 33877 ft 525 kts 166°
2026-04-26 16:13 22.26156 55.76917 33890 ft 524 kts 170°
2026-04-26 16:14 22.18950 55.77915 33882 ft 521 kts 177°
2026-04-26 16:15 22.08154 55.78896 33894 ft 522 kts 177°
2026-04-26 16:15 22.00919 55.79608 33892 ft 523 kts 177°
2026-04-26 16:16 21.90055 55.80704 33889 ft 523 kts 176°
2026-04-26 16:16 21.82807 55.81436 33885 ft 523 kts 176°
2026-04-26 16:17 21.75571 55.82161 33882 ft 522 kts 176°
2026-04-26 16:17 21.68339 55.82887 33894 ft 522 kts 177°
2026-04-26 16:18 21.57458 55.83949 34103 ft 526 kts 177°
2026-04-26 16:19 21.50182 55.84656 34756 ft 524 kts 177°
2026-04-26 16:19 21.46550 55.85011 35070 ft 524 kts 177°
2026-04-26 16:19 21.40536 55.85602 35618 ft 522 kts 177°
2026-04-26 16:20 21.35688 55.86076 35840 ft 524 kts 177°
2026-04-26 16:20 21.26028 55.87013 35890 ft 522 kts 177°
2026-04-26 16:21 21.18811 55.87710 35884 ft 520 kts 177°
2026-04-26 16:21 21.11615 55.88402 35891 ft 519 kts 177°
2026-04-26 16:22 21.04412 55.89092 35892 ft 520 kts 177°
2026-04-26 16:22 20.97193 55.89784 35894 ft 521 kts 176°
2026-04-26 16:23 20.89951 55.90476 35886 ft 524 kts 176°
2026-04-26 16:23 20.82686 55.91183 35895 ft 525 kts 176°
2026-04-26 16:24 20.75403 55.91896 35893 ft 526 kts 176°
2026-04-26 16:24 20.68109 55.92616 35891 ft 527 kts 176°
2026-04-26 16:25 20.60805 55.93337 35882 ft 527 kts 176°
2026-04-26 16:25 20.53491 55.94049 35888 ft 528 kts 176°
2026-04-26 16:26 20.46174 55.94765 35888 ft 529 kts 176°
2026-04-26 16:26 20.38855 55.95484 35889 ft 528 kts 176°
2026-04-26 16:27 20.31588 55.96192 35890 ft 528 kts 176°
2026-04-26 16:27 20.24259 55.96892 35887 ft 529 kts 176°
2026-04-26 16:28 20.16922 55.97591 35890 ft 529 kts 176°
2026-04-26 16:28 20.09588 55.98283 35885 ft 529 kts 176°
2026-04-26 16:29 20.02246 55.98636 35889 ft 528 kts 180°
2026-04-26 16:29 19.94894 55.98763 35892 ft 528 kts 180°
2026-04-26 16:30 19.87528 55.98903 35890 ft 530 kts 180°
2026-04-26 16:30 19.80156 55.99080 35886 ft 530 kts 180°
2026-04-26 16:31 19.72783 55.99262 35891 ft 529 kts 180°
2026-04-26 16:31 19.65412 55.99442 35888 ft 530 kts 180°
2026-04-26 16:32 19.59296 55.99591 35891 ft 529 kts 180°
2026-04-26 16:32 19.50810 55.98892 35897 ft 521 kts 198°
2026-04-26 16:33 19.44139 55.96080 35893 ft 513 kts 214°
2026-04-26 16:33 19.38017 55.92240 35898 ft 512 kts 214°
2026-04-26 16:34 19.31852 55.88419 35903 ft 515 kts 214°
2026-04-26 16:34 19.25636 55.84639 35906 ft 516 kts 213°
2026-04-26 16:35 19.19427 55.80881 35905 ft 518 kts 213°
2026-04-26 16:35 19.13149 55.77087 35905 ft 521 kts 213°
2026-04-26 16:36 19.06869 55.73288 35898 ft 521 kts 213°
2026-04-26 16:36 19.00568 55.69483 35897 ft 521 kts 213°
2026-04-26 16:37 18.94272 55.65707 35891 ft 519 kts 213°
2026-04-26 16:37 18.87996 55.61945 35889 ft 518 kts 213°
2026-04-26 16:38 18.81733 55.58175 35901 ft 518 kts 213°
2026-04-26 16:38 18.75467 55.54413 35893 ft 518 kts 213°
2026-04-26 16:39 18.69197 55.50660 35898 ft 518 kts 213°
2026-04-26 16:39 18.62927 55.46901 35902 ft 518 kts 213°
2026-04-26 16:40 18.56698 55.43168 35893 ft 519 kts 213°
2026-04-26 16:40 18.50412 55.39405 35906 ft 521 kts 213°
2026-04-26 16:41 18.44095 55.35634 35899 ft 522 kts 213°
2026-04-26 16:41 18.37769 55.31859 35901 ft 523 kts 213°
2026-04-26 16:42 18.31440 55.28081 35901 ft 523 kts 213°
2026-04-26 16:42 18.25100 55.24300 35901 ft 524 kts 213°
2026-04-26 16:43 18.18759 55.20515 35914 ft 524 kts 213°
2026-04-26 16:43 18.12347 55.16871 35906 ft 524 kts 207°
2026-04-26 16:44 18.05630 55.13861 35907 ft 524 kts 205°
2026-04-26 16:44 17.98902 55.10915 35904 ft 523 kts 205°
2026-04-26 16:45 17.92188 55.07925 35907 ft 524 kts 205°
2026-04-26 16:45 17.85476 55.04915 35912 ft 525 kts 205°
2026-04-26 16:46 17.78757 55.01903 35911 ft 525 kts 205°
2026-04-26 16:46 17.72022 54.98885 35910 ft 527 kts 205°
2026-04-26 16:47 17.65282 54.95871 35907 ft 527 kts 205°
2026-04-26 16:47 17.58541 54.92866 35910 ft 527 kts 205°
2026-04-26 16:48 17.51782 54.89846 35905 ft 528 kts 205°
2026-04-26 16:48 17.45028 54.86827 35913 ft 528 kts 205°
2026-04-26 16:49 17.38267 54.83821 35907 ft 527 kts 205°
2026-04-26 16:49 17.31558 54.80830 35911 ft 528 kts 205°
2026-04-26 16:50 17.24943 54.77556 35897 ft 524 kts 214°
2026-04-26 16:50 17.18839 54.73428 35916 ft 523 kts 216°
2026-04-26 16:51 17.12741 54.69265 35906 ft 523 kts 216°
2026-04-26 16:51 17.06619 54.65158 35906 ft 523 kts 216°
2026-04-26 16:52 17.01482 54.61731 35903 ft 523 kts 216°
2026-04-26 16:52 16.94339 54.56964 35910 ft 524 kts 215°
2026-04-26 16:53 16.88205 54.52869 35916 ft 523 kts 216°
2026-04-26 16:53 16.82073 54.48775 35914 ft 523 kts 215°
2026-04-26 16:54 16.75934 54.44687 35918 ft 524 kts 215°
2026-04-26 16:54 16.69786 54.40589 35920 ft 524 kts 215°
2026-04-26 16:55 16.63628 54.36488 35914 ft 526 kts 215°
2026-04-26 16:55 16.57453 54.32380 35915 ft 527 kts 215°
2026-04-26 16:56 16.48187 54.26222 35912 ft 527 kts 215°
2026-04-26 16:57 16.42021 54.22122 35913 ft 526 kts 215°
2026-04-26 16:57 16.32784 54.15993 35921 ft 527 kts 215°
2026-04-26 16:58 16.27607 54.12565 35916 ft 527 kts 215°
2026-04-26 16:59 16.17317 54.05741 35919 ft 527 kts 215°
2026-04-26 17:00 16.04941 53.97556 35917 ft 527 kts 215°
2026-04-26 17:00 15.95645 53.91416 35917 ft 527 kts 215°
2026-04-26 17:01 15.89448 53.87326 35920 ft 528 kts 215°
2026-04-26 17:01 15.83264 53.83225 35921 ft 528 kts 215°
2026-04-26 17:02 15.77097 53.79094 35915 ft 528 kts 215°
2026-04-26 17:02 15.70930 53.74976 35914 ft 527 kts 215°
2026-04-26 17:03 15.64755 53.70863 35920 ft 527 kts 215°
2026-04-26 17:03 15.58594 53.66750 35917 ft 527 kts 215°
2026-04-26 17:04 15.52426 53.62639 35919 ft 527 kts 215°
2026-04-26 17:04 15.46256 53.58535 35918 ft 528 kts 215°
2026-04-26 17:05 15.40063 53.54454 35913 ft 528 kts 214°
2026-04-26 17:05 15.33811 53.50457 35918 ft 527 kts 213°
2026-04-26 17:06 15.27570 53.46485 35913 ft 527 kts 214°
2026-04-26 17:06 15.21338 53.42497 35915 ft 526 kts 214°
2026-04-26 17:07 15.15153 53.38538 35920 ft 526 kts 214°
2026-04-26 17:07 15.08932 53.34560 35911 ft 526 kts 214°
2026-04-26 17:08 15.02715 53.30578 35919 ft 527 kts 214°
2026-04-26 17:08 14.96473 53.26597 35920 ft 527 kts 213°
2026-04-26 17:09 14.92306 53.23938 35917 ft 527 kts 213°
2026-04-26 17:09 14.83986 53.18628 35924 ft 528 kts 214°
2026-04-26 17:10 14.77733 53.14637 35917 ft 528 kts 213°
2026-04-26 17:10 14.72538 53.11328 35918 ft 528 kts 213°
2026-04-26 17:11 14.66391 53.07164 35924 ft 526 kts 220°
2026-04-26 17:11 14.60994 53.02119 35922 ft 522 kts 229°
2026-04-26 17:12 14.53422 52.94022 35916 ft 523 kts 229°
2026-04-26 17:13 14.45804 52.85969 35915 ft 523 kts 229°
2026-04-26 17:14 14.38155 52.77952 35917 ft 522 kts 228°
2026-04-26 17:14 14.30512 52.69945 35931 ft 522 kts 228°
2026-04-26 17:15 14.22873 52.61942 35927 ft 522 kts 228°
2026-04-26 17:16 14.17780 52.56613 35927 ft 523 kts 228°
2026-04-26 17:16 14.12671 52.51273 35924 ft 523 kts 228°
2026-04-26 17:17 14.07567 52.45938 35931 ft 523 kts 228°
2026-04-26 17:17 14.02458 52.40604 35925 ft 523 kts 228°
2026-04-26 17:18 13.97383 52.35313 35926 ft 523 kts 228°
2026-04-26 17:18 13.92241 52.29946 35926 ft 523 kts 228°
2026-04-26 17:19 13.84609 52.21993 35924 ft 523 kts 228°
2026-04-26 17:19 13.79493 52.16668 35917 ft 524 kts 228°
2026-04-26 17:20 13.75199 52.12200 35917 ft 524 kts 228°
2026-04-26 17:20 13.69245 52.06009 35917 ft 524 kts 228°
2026-04-26 17:21 13.64123 52.00687 35917 ft 524 kts 228°
2026-04-26 17:21 13.58999 51.95364 35916 ft 524 kts 228°
2026-04-26 17:22 13.53876 51.90046 35915 ft 523 kts 228°
2026-04-26 17:22 13.48790 51.84701 35918 ft 523 kts 229°
2026-04-26 17:23 13.43722 51.79345 35912 ft 523 kts 229°
2026-04-26 17:23 13.38646 51.73989 35919 ft 523 kts 228°
2026-04-26 17:24 13.33597 51.68673 35908 ft 523 kts 228°
2026-04-26 17:24 13.28513 51.63324 35906 ft 523 kts 228°
2026-04-26 17:25 13.23432 51.57983 35909 ft 523 kts 228°
2026-04-26 17:25 13.18338 51.52631 35907 ft 524 kts 228°
2026-04-26 17:26 13.13251 51.47290 35908 ft 524 kts 228°
2026-04-26 17:26 13.08152 51.41939 35905 ft 524 kts 228°
2026-04-26 17:27 13.03052 51.36589 35896 ft 524 kts 228°
2026-04-26 17:27 12.97949 51.31242 35898 ft 525 kts 228°
2026-04-26 17:28 12.92845 51.25897 35900 ft 525 kts 228°
2026-04-26 17:28 12.87735 51.20549 35894 ft 525 kts 228°
2026-04-26 17:29 12.83493 51.16112 35886 ft 525 kts 228°
2026-04-26 17:29 12.77520 51.09867 35888 ft 525 kts 228°
2026-04-26 17:30 12.72413 51.04530 35889 ft 524 kts 228°
2026-04-26 17:30 12.67306 50.99195 35885 ft 525 kts 228°
2026-04-26 17:31 12.62195 50.93864 35880 ft 524 kts 228°
2026-04-26 17:31 12.57115 50.88576 35884 ft 524 kts 228°
2026-04-26 17:32 12.52003 50.83259 35882 ft 524 kts 228°
2026-04-26 17:32 12.46894 50.77947 35862 ft 524 kts 228°
2026-04-26 17:33 12.41786 50.72635 35869 ft 524 kts 228°
2026-04-26 17:34 12.34123 50.64677 35861 ft 523 kts 228°
2026-04-26 17:34 12.29025 50.59384 35857 ft 523 kts 228°
2026-04-26 17:35 12.23914 50.54080 35860 ft 523 kts 228°
2026-04-26 17:35 12.18806 50.48784 35862 ft 523 kts 228°
2026-04-26 17:36 12.13760 50.43443 35858 ft 521 kts 230°
2026-04-26 17:36 12.08934 50.37916 35854 ft 521 kts 231°
2026-04-26 17:37 12.04137 50.32363 35854 ft 521 kts 231°
2026-04-26 17:37 11.99306 50.26844 35849 ft 521 kts 231°
2026-04-26 17:38 11.92029 50.18597 35847 ft 521 kts 230°
2026-04-26 17:38 11.87174 50.13102 35850 ft 521 kts 230°
2026-04-26 17:39 11.82317 50.07604 35854 ft 522 kts 230°
2026-04-26 17:39 11.77464 50.02107 35859 ft 522 kts 230°
2026-04-26 17:40 11.73414 49.97524 35841 ft 522 kts 230°
2026-04-26 17:40 11.67720 49.91090 35842 ft 523 kts 230°
2026-04-26 17:41 11.62854 49.85588 35847 ft 522 kts 230°
2026-04-26 17:41 11.58018 49.80129 35839 ft 522 kts 230°
2026-04-26 17:42 11.53156 49.74640 35838 ft 521 kts 230°
2026-04-26 17:42 11.48303 49.69167 35836 ft 521 kts 230°
2026-04-26 17:43 11.43434 49.63674 35844 ft 521 kts 230°
2026-04-26 17:43 11.38571 49.58197 35836 ft 521 kts 230°
2026-04-26 17:44 11.33524 49.52901 35826 ft 520 kts 227°
2026-04-26 17:44 11.28367 49.47723 35837 ft 520 kts 226°
2026-04-26 17:45 11.23228 49.42534 35837 ft 520 kts 227°
2026-04-26 17:45 11.18127 49.37322 35825 ft 519 kts 227°
2026-04-26 17:46 11.13030 49.32102 35836 ft 520 kts 227°
2026-04-26 17:46 11.07929 49.26878 35834 ft 520 kts 227°
2026-04-26 17:47 11.04548 49.23418 35834 ft 521 kts 227°
2026-04-26 17:47 10.97713 49.16431 35838 ft 521 kts 227°
2026-04-26 17:48 10.92600 49.11208 35831 ft 521 kts 227°
2026-04-26 17:48 10.87485 49.05987 35837 ft 521 kts 227°
2026-04-26 17:49 10.82401 49.00804 35830 ft 521 kts 227°
2026-04-26 17:49 10.77286 48.95587 35834 ft 520 kts 227°
2026-04-26 17:50 10.72175 48.90378 35834 ft 520 kts 227°
2026-04-26 17:50 10.67065 48.85173 35833 ft 520 kts 227°
2026-04-26 17:51 10.61959 48.79973 35835 ft 520 kts 227°
2026-04-26 17:51 10.56853 48.74775 35833 ft 519 kts 227°
2026-04-26 17:52 10.51751 48.69585 35833 ft 519 kts 227°
2026-04-26 17:52 10.46652 48.64400 35836 ft 518 kts 227°
2026-04-26 17:53 10.41559 48.59227 35831 ft 518 kts 226°
2026-04-26 17:54 10.33925 48.51472 35834 ft 517 kts 226°
2026-04-26 17:54 10.28835 48.46307 35824 ft 517 kts 226°
2026-04-26 17:55 10.23749 48.41147 35834 ft 517 kts 226°
2026-04-26 17:55 10.18667 48.35992 35838 ft 516 kts 226°
2026-04-26 17:56 10.13589 48.30846 35842 ft 516 kts 226°
2026-04-26 17:57 10.03429 48.20559 35847 ft 515 kts 226°
2026-04-26 17:57 9.98355 48.15422 35844 ft 515 kts 226°
2026-04-26 17:58 9.88203 48.05153 35836 ft 515 kts 226°
2026-04-26 17:59 9.80590 47.97457 35843 ft 515 kts 226°
2026-04-26 17:59 9.75542 47.92360 35848 ft 516 kts 226°
2026-04-26 18:00 9.70455 47.87225 35843 ft 516 kts 226°
2026-04-26 18:00 9.65366 47.82091 35851 ft 516 kts 226°
2026-04-26 18:01 9.60279 47.76957 35853 ft 516 kts 226°
2026-04-26 18:01 9.55187 47.71824 35850 ft 516 kts 226°
2026-04-26 18:02 9.51786 47.68399 35847 ft 515 kts 226°
2026-04-26 18:02 9.45023 47.61586 35849 ft 515 kts 226°
2026-04-26 18:03 9.40803 47.57335 35857 ft 515 kts 226°
2026-04-26 18:03 9.35726 47.52223 35850 ft 515 kts 226°
2026-04-26 18:04 9.30649 47.47115 35848 ft 515 kts 226°
2026-04-26 18:05 9.23037 47.39461 35849 ft 514 kts 226°
2026-04-26 18:05 9.17961 47.34351 35849 ft 514 kts 226°
2026-04-26 18:06 9.12988 47.29158 35861 ft 514 kts 227°
2026-04-26 18:06 9.08055 47.23917 35859 ft 514 kts 227°
2026-04-26 18:07 9.03112 47.18684 35867 ft 514 kts 227°
2026-04-26 18:07 8.98155 47.13462 35860 ft 514 kts 227°
2026-04-26 18:08 8.93196 47.08251 35870 ft 514 kts 227°
2026-04-26 18:08 8.88236 47.03043 35862 ft 514 kts 227°
2026-04-26 18:09 8.83318 46.97878 35855 ft 513 kts 227°
2026-04-26 18:09 8.78329 46.92636 35858 ft 514 kts 227°
2026-04-26 18:10 8.73376 46.87432 35869 ft 513 kts 227°
2026-04-26 18:10 8.68457 46.82271 35856 ft 513 kts 227°
2026-04-26 18:11 8.63506 46.77080 35859 ft 513 kts 227°
2026-04-26 18:11 8.58559 46.71893 35856 ft 512 kts 227°
2026-04-26 18:12 8.53579 46.66671 35868 ft 512 kts 227°
2026-04-26 18:12 8.48630 46.61484 35865 ft 512 kts 227°
2026-04-26 18:13 8.43715 46.56337 35857 ft 512 kts 227°
2026-04-26 18:13 8.38771 46.51158 35866 ft 512 kts 227°
2026-04-26 18:14 8.33831 46.45992 35859 ft 511 kts 227°
2026-04-26 18:14 8.28894 46.40827 35861 ft 511 kts 227°
2026-04-26 18:15 8.23971 46.35676 35942 ft 508 kts 227°
2026-04-26 18:15 8.19076 46.30539 35946 ft 507 kts 227°
2026-04-26 18:16 8.14226 46.25373 35947 ft 507 kts 227°
2026-04-26 18:16 8.06974 46.17633 35944 ft 505 kts 227°
2026-04-26 18:17 8.02135 46.12483 35946 ft 505 kts 227°
2026-04-26 18:17 7.97299 46.07345 35943 ft 505 kts 227°
2026-04-26 18:18 7.92465 46.02203 35943 ft 505 kts 227°
2026-04-26 18:18 7.87634 45.97071 35946 ft 505 kts 227°
2026-04-26 18:19 7.82799 45.91936 35941 ft 505 kts 227°
2026-04-26 18:19 7.77960 45.86796 35933 ft 506 kts 227°
2026-04-26 18:20 7.73116 45.81655 35936 ft 506 kts 227°
2026-04-26 18:20 7.69090 45.77382 35937 ft 505 kts 227°
2026-04-26 18:21 7.63418 45.71378 35936 ft 506 kts 227°
2026-04-26 18:21 7.58562 45.66247 35934 ft 506 kts 227°
2026-04-26 18:22 7.53704 45.61106 35937 ft 506 kts 227°
2026-04-26 18:22 7.48844 45.55967 35934 ft 506 kts 227°
2026-04-26 18:23 7.43986 45.50830 35939 ft 506 kts 227°
2026-04-26 18:23 7.39125 45.45695 35933 ft 506 kts 227°
2026-04-26 18:24 7.34265 45.40563 35929 ft 506 kts 227°
2026-04-26 18:24 7.29414 45.35440 35925 ft 506 kts 227°
2026-04-26 18:25 7.24910 45.30685 35924 ft 505 kts 227°
2026-04-26 18:25 7.20061 45.25566 35922 ft 505 kts 226°
2026-04-26 18:26 7.15212 45.20451 35914 ft 504 kts 226°
2026-04-26 18:26 7.10399 45.15378 35917 ft 505 kts 226°
2026-04-26 18:27 7.05554 45.10270 35916 ft 504 kts 226°
2026-04-26 18:27 7.00711 45.05168 35918 ft 504 kts 226°
2026-04-26 18:28 6.95874 45.00068 35917 ft 503 kts 226°
2026-04-26 18:28 6.91043 44.94978 35978 ft 503 kts 226°
2026-04-26 18:29 6.86207 44.89884 35982 ft 503 kts 226°
2026-04-26 18:29 6.81363 44.84788 35981 ft 504 kts 226°
2026-04-26 18:30 6.76519 44.79688 35985 ft 505 kts 226°
2026-04-26 18:30 6.71667 44.74583 35981 ft 505 kts 226°
2026-04-26 18:31 6.66804 44.69483 35979 ft 505 kts 226°
2026-04-26 18:31 6.61941 44.64391 35985 ft 505 kts 226°
2026-04-26 18:32 6.57083 44.59304 35980 ft 504 kts 226°
2026-04-26 18:32 6.52225 44.54219 35978 ft 504 kts 226°
2026-04-26 18:33 6.47375 44.49139 35981 ft 503 kts 226°
2026-04-26 18:33 6.42530 44.44067 35982 ft 503 kts 226°
2026-04-26 18:34 6.37682 44.38993 35980 ft 503 kts 226°
2026-04-26 18:34 6.32841 44.33929 35981 ft 502 kts 226°
2026-04-26 18:35 6.28002 44.28870 35981 ft 502 kts 226°
2026-04-26 18:35 6.23168 44.23814 35983 ft 502 kts 226°
2026-04-26 18:36 6.18365 44.18792 35981 ft 502 kts 226°
2026-04-26 18:36 6.13534 44.13747 35984 ft 501 kts 226°
2026-04-26 18:37 6.08698 44.08694 35984 ft 502 kts 226°
2026-04-26 18:37 6.03857 44.03637 35978 ft 502 kts 226°
2026-04-26 18:38 5.99012 43.98580 35981 ft 503 kts 226°
2026-04-26 18:38 5.94163 43.93519 35982 ft 503 kts 226°
2026-04-26 18:39 5.89317 43.88461 35977 ft 503 kts 226°
2026-04-26 18:39 5.84469 43.83402 35980 ft 503 kts 226°
2026-04-26 18:40 5.79619 43.78344 35982 ft 503 kts 226°
2026-04-26 18:40 5.74771 43.73288 35980 ft 502 kts 226°
2026-04-26 18:41 5.69928 43.68237 35980 ft 502 kts 226°
2026-04-26 18:41 5.65077 43.63188 35981 ft 502 kts 226°
2026-04-26 18:42 5.60214 43.58147 35975 ft 503 kts 226°
2026-04-26 18:42 5.55345 43.53102 35972 ft 503 kts 226°
2026-04-26 18:43 5.50476 43.48054 35970 ft 503 kts 226°
2026-04-26 18:43 5.45607 43.43007 35973 ft 503 kts 226°
2026-04-26 18:44 5.40735 43.37958 35974 ft 503 kts 226°
2026-04-26 18:44 5.35861 43.32907 35972 ft 504 kts 226°
2026-04-26 18:45 5.31029 43.27899 35970 ft 504 kts 226°
2026-04-26 18:45 5.26158 43.22855 35973 ft 504 kts 226°
2026-04-26 18:46 5.21282 43.17807 35975 ft 503 kts 226°
2026-04-26 18:46 5.16409 43.12764 35971 ft 503 kts 226°
2026-04-26 18:47 5.11535 43.07720 35973 ft 503 kts 226°
2026-04-26 18:47 5.06663 43.02679 35969 ft 503 kts 226°
2026-04-26 18:48 5.01791 42.97638 35974 ft 503 kts 226°
2026-04-26 18:48 4.96913 42.92594 35971 ft 504 kts 225°
2026-04-26 18:49 4.92034 42.87548 35973 ft 504 kts 225°
2026-04-26 18:49 4.87153 42.82501 35973 ft 504 kts 225°
2026-04-26 18:50 4.82260 42.77449 35968 ft 505 kts 225°
2026-04-26 18:50 4.78160 42.73212 35963 ft 505 kts 226°
2026-04-26 18:51 4.73263 42.68151 35963 ft 506 kts 225°
2026-04-26 18:51 4.68364 42.63088 35962 ft 506 kts 225°
2026-04-26 18:52 4.63462 42.58029 35964 ft 506 kts 225°
2026-04-26 18:52 4.58560 42.52967 35963 ft 506 kts 225°
2026-04-26 18:53 4.53690 42.47941 35964 ft 506 kts 225°
2026-04-26 18:53 4.48783 42.42877 35962 ft 507 kts 225°
2026-04-26 18:54 4.43866 42.37802 35961 ft 508 kts 225°
2026-04-26 18:54 4.38944 42.32723 35965 ft 508 kts 225°
2026-04-26 18:55 4.34017 42.27644 35962 ft 508 kts 225°
2026-04-26 18:55 4.29086 42.22559 35964 ft 509 kts 225°
2026-04-26 18:56 4.24147 42.17463 35964 ft 510 kts 225°
2026-04-26 18:56 4.19218 42.12383 35958 ft 510 kts 225°
2026-04-26 18:57 4.15063 42.08102 35954 ft 511 kts 225°
2026-04-26 18:57 4.09305 42.02171 35954 ft 511 kts 225°
2026-04-26 18:58 4.04350 41.97065 35955 ft 511 kts 225°
2026-04-26 18:58 3.99396 41.91959 35953 ft 511 kts 225°
2026-04-26 18:59 3.94434 41.86867 35954 ft 510 kts 224°
2026-04-26 18:59 3.89068 41.82235 35961 ft 509 kts 218°
2026-04-26 19:00 3.83547 41.77788 35952 ft 509 kts 218°
2026-04-26 19:00 3.78040 41.73336 35958 ft 509 kts 218°
2026-04-26 19:01 3.72549 41.68856 35942 ft 509 kts 219°
2026-04-26 19:01 3.67104 41.64398 35943 ft 509 kts 219°
2026-04-26 19:02 3.61625 41.59912 35945 ft 508 kts 219°
2026-04-26 19:02 3.57037 41.56157 35947 ft 508 kts 219°
2026-04-26 19:03 3.50682 41.50957 35942 ft 507 kts 219°
2026-04-26 19:03 3.45217 41.46490 35944 ft 507 kts 219°
2026-04-26 19:04 3.39756 41.42026 35944 ft 506 kts 219°
2026-04-26 19:04 3.34300 41.37561 35935 ft 506 kts 219°
2026-04-26 19:05 3.26118 41.30877 35934 ft 506 kts 219°
2026-04-26 19:06 3.20668 41.26423 35936 ft 506 kts 219°
2026-04-26 19:06 3.15217 41.21971 35934 ft 506 kts 218°
2026-04-26 19:07 3.09767 41.17519 35924 ft 506 kts 218°
2026-04-26 19:07 3.04314 41.13064 35911 ft 506 kts 219°
2026-04-26 19:08 2.98868 41.08614 35905 ft 505 kts 218°
2026-04-26 19:08 2.93428 41.04173 35908 ft 504 kts 218°
2026-04-26 19:09 2.88409 41.00074 35907 ft 503 kts 218°
2026-04-26 19:09 2.82981 40.95642 35908 ft 504 kts 218°
2026-04-26 19:10 2.77557 40.91214 35910 ft 504 kts 218°
2026-04-26 19:10 2.72127 40.86782 35906 ft 504 kts 218°
2026-04-26 19:11 2.66697 40.82350 35908 ft 504 kts 218°
2026-04-26 19:11 2.61265 40.77917 35905 ft 504 kts 218°
2026-04-26 19:12 2.55836 40.73486 35908 ft 503 kts 218°
2026-04-26 19:12 2.50408 40.69057 35907 ft 503 kts 218°
2026-04-26 19:13 2.44983 40.64631 35908 ft 503 kts 218°
2026-04-26 19:13 2.39556 40.60203 35908 ft 503 kts 218°
2026-04-26 19:14 2.34107 40.55814 35908 ft 503 kts 218°
2026-04-26 19:14 2.28639 40.51443 35908 ft 503 kts 218°
2026-04-26 19:15 2.23211 40.47099 35909 ft 503 kts 218°
2026-04-26 19:15 2.17748 40.42720 35906 ft 503 kts 218°
2026-04-26 19:16 2.12290 40.38340 35909 ft 503 kts 218°
2026-04-26 19:16 2.06833 40.33963 35906 ft 503 kts 218°
2026-04-26 19:17 2.01371 40.29584 35911 ft 504 kts 218°
2026-04-26 19:17 1.95905 40.25204 35916 ft 504 kts 218°
2026-04-26 19:18 1.90441 40.20822 35918 ft 503 kts 218°
2026-04-26 19:18 1.84979 40.16445 35916 ft 503 kts 218°
2026-04-26 19:19 1.79520 40.12065 35918 ft 503 kts 218°
2026-04-26 19:19 1.74066 40.07677 35916 ft 503 kts 219°
2026-04-26 19:20 1.68931 40.02916 35923 ft 504 kts 224°
2026-04-26 19:20 1.63982 39.97959 35916 ft 504 kts 224°
2026-04-26 19:21 1.59017 39.93027 35919 ft 503 kts 224°
2026-04-26 19:21 1.54006 39.88140 35916 ft 504 kts 224°
2026-04-26 19:22 1.48973 39.83269 35915 ft 504 kts 223°
2026-04-26 19:22 1.43936 39.78402 35918 ft 504 kts 223°
2026-04-26 19:23 1.38929 39.73557 35918 ft 504 kts 224°
2026-04-26 19:23 1.33893 39.68679 35918 ft 504 kts 224°
2026-04-26 19:24 1.28819 39.63764 35917 ft 505 kts 224°
2026-04-26 19:24 1.21291 39.56474 35918 ft 504 kts 224°
2026-04-26 19:25 1.17921 39.53211 35918 ft 505 kts 224°
2026-04-26 19:25 1.11218 39.46720 35926 ft 504 kts 224°
2026-04-26 19:26 1.06187 39.41849 35923 ft 504 kts 224°
2026-04-26 19:26 1.01154 39.36978 35931 ft 504 kts 224°
2026-04-26 19:27 0.96126 39.32107 35924 ft 503 kts 224°
2026-04-26 19:27 0.91098 39.27239 35925 ft 503 kts 223°
2026-04-26 19:28 0.86068 39.22368 35933 ft 504 kts 223°
2026-04-26 19:28 0.81033 39.17498 35938 ft 504 kts 223°
2026-04-26 19:29 0.76003 39.12630 35935 ft 504 kts 224°
2026-04-26 19:29 0.70971 39.07758 35943 ft 504 kts 224°
2026-04-26 19:30 0.65941 39.02889 35945 ft 504 kts 224°
2026-04-26 19:30 0.61758 38.98841 35945 ft 503 kts 223°
2026-04-26 19:31 0.55879 38.93151 35944 ft 503 kts 223°
2026-04-26 19:31 0.50850 38.88285 35946 ft 503 kts 223°
2026-04-26 19:32 0.45828 38.83423 35978 ft 502 kts 223°
2026-04-26 19:32 0.40805 38.78562 35979 ft 502 kts 223°
2026-04-26 19:33 0.35788 38.73708 35982 ft 502 kts 223°
2026-04-26 19:33 0.30773 38.68854 35934 ft 501 kts 223°
2026-04-26 19:34 0.28276 38.66437 35466 ft 498 kts 223°
2026-04-26 19:34 0.25791 38.64032 34811 ft 497 kts 223°
2026-04-26 19:34 0.23314 38.61635 34190 ft 495 kts 223°
2026-04-26 19:34 0.20849 38.59249 33669 ft 491 kts 224°
2026-04-26 19:35 0.18410 38.56889 33229 ft 485 kts 224°
2026-04-26 19:35 0.16001 38.54558 32785 ft 480 kts 224°
2026-04-26 19:35 0.13616 38.52249 32310 ft 476 kts 224°
2026-04-26 19:35 0.11248 38.49957 31814 ft 472 kts 224°
2026-04-26 19:36 0.08898 38.47683 31296 ft 468 kts 224°
2026-04-26 19:36 0.08139 38.46950 31134 ft 467 kts 224°
2026-04-26 19:36 0.04250 38.43188 30319 ft 461 kts 224°
2026-04-26 19:36 0.01957 38.40970 29832 ft 457 kts 224°
2026-04-26 19:37 0.00450 38.39510 29529 ft 455 kts 224°
2026-04-26 19:37 -0.01813 38.37320 29032 ft 451 kts 224°
2026-04-26 19:37 -0.04061 38.35145 28494 ft 449 kts 224°
2026-04-26 19:37 -0.06299 38.32980 27937 ft 447 kts 224°
2026-04-26 19:38 -0.09252 38.30122 27198 ft 445 kts 224°
2026-04-26 19:38 -0.10751 38.28671 26842 ft 444 kts 224°
2026-04-26 19:38 -0.12963 38.26531 26341 ft 441 kts 224°
2026-04-26 19:38 -0.15157 38.24408 25839 ft 439 kts 224°
2026-04-26 19:39 -0.17346 38.22289 25314 ft 437 kts 224°
2026-04-26 19:39 -0.19526 38.20180 24793 ft 435 kts 224°
2026-04-26 19:39 -0.21698 38.18077 24272 ft 434 kts 224°
2026-04-26 19:39 -0.23569 38.16266 23835 ft 433 kts 224°
2026-04-26 19:40 -0.25676 38.14227 23361 ft 430 kts 224°
2026-04-26 19:40 -0.27818 38.12154 22937 ft 427 kts 224°
2026-04-26 19:40 -0.29939 38.10102 22525 ft 423 kts 224°
2026-04-26 19:40 -0.32041 38.08069 22108 ft 419 kts 224°
2026-04-26 19:41 -0.34126 38.06050 21677 ft 416 kts 224°
2026-04-26 19:41 -0.36196 38.04046 21251 ft 413 kts 224°
2026-04-26 19:41 -0.38250 38.02059 20831 ft 409 kts 224°
2026-04-26 19:41 -0.39599 38.00755 20561 ft 407 kts 224°
2026-04-26 19:42 -0.42304 37.98137 20108 ft 403 kts 224°
2026-04-26 19:42 -0.44323 37.96184 20127 ft 403 kts 224°
2026-04-26 19:42 -0.46310 37.94260 20104 ft 403 kts 224°
2026-04-26 19:42 -0.48322 37.92310 20107 ft 402 kts 224°
2026-04-26 19:43 -0.50330 37.90365 20120 ft 402 kts 224°
2026-04-26 19:43 -0.52339 37.88419 20140 ft 403 kts 224°
2026-04-26 19:43 -0.54350 37.86474 20144 ft 403 kts 224°
2026-04-26 19:43 -0.56366 37.84523 20143 ft 403 kts 224°
2026-04-26 19:44 -0.58381 37.82575 20147 ft 404 kts 224°
2026-04-26 19:44 -0.60398 37.80624 20151 ft 404 kts 224°
2026-04-26 19:44 -0.62413 37.78672 20156 ft 404 kts 224°
2026-04-26 19:44 -0.64432 37.76719 20154 ft 404 kts 224°
2026-04-26 19:45 -0.66447 37.74769 20161 ft 404 kts 224°
2026-04-26 19:45 -0.68462 37.72820 20166 ft 403 kts 224°
2026-04-26 19:45 -0.70477 37.70869 20167 ft 403 kts 224°
2026-04-26 19:45 -0.72488 37.68924 20168 ft 402 kts 224°
2026-04-26 19:46 -0.74491 37.66985 19977 ft 400 kts 224°
2026-04-26 19:46 -0.76480 37.65059 19586 ft 397 kts 224°
2026-04-26 19:46 -0.78455 37.63147 19150 ft 394 kts 224°
2026-04-26 19:46 -0.80419 37.61246 18731 ft 391 kts 224°
2026-04-26 19:47 -0.82366 37.59361 18310 ft 388 kts 223°
2026-04-26 19:47 -0.83645 37.58122 18042 ft 386 kts 223°
2026-04-26 19:47 -0.86215 37.55634 17483 ft 382 kts 223°
2026-04-26 19:47 -0.88116 37.53794 17073 ft 380 kts 223°
2026-04-26 19:48 -0.90010 37.51961 16673 ft 377 kts 223°
2026-04-26 19:48 -0.91881 37.50150 16289 ft 373 kts 224°
2026-04-26 19:48 -0.93737 37.48352 15893 ft 370 kts 224°
2026-04-26 19:48 -0.95551 37.46596 15509 ft 367 kts 224°
2026-04-26 19:49 -0.97398 37.44808 15228 ft 366 kts 224°
2026-04-26 19:49 -0.99233 37.43031 15226 ft 368 kts 224°
2026-04-26 19:49 -1.01070 37.41255 15216 ft 367 kts 224°
2026-04-26 19:49 -1.02896 37.39486 15209 ft 365 kts 224°
2026-04-26 19:50 -1.04715 37.37724 15216 ft 364 kts 224°
2026-04-26 19:50 -1.06533 37.35965 15219 ft 364 kts 224°
2026-04-26 19:50 -1.08349 37.34205 15221 ft 363 kts 224°
2026-04-26 19:50 -1.10164 37.32446 15221 ft 363 kts 224°
2026-04-26 19:51 -1.11955 37.30711 15225 ft 363 kts 224°
2026-04-26 19:51 -1.13772 37.28952 15212 ft 352 kts 224°
2026-04-26 19:51 -1.15474 37.27304 15208 ft 338 kts 224°
2026-04-26 19:51 -1.17130 37.25700 15212 ft 328 kts 224°
2026-04-26 19:52 -1.18781 37.24102 15230 ft 331 kts 224°
2026-04-26 19:52 -1.20432 37.22503 15228 ft 330 kts 224°
2026-04-26 19:52 -1.22074 37.20912 15226 ft 329 kts 224°
2026-04-26 19:52 -1.23721 37.19318 15229 ft 328 kts 224°
2026-04-26 19:53 -1.25360 37.17730 15230 ft 328 kts 224°
2026-04-26 19:53 -1.26996 37.16146 15235 ft 327 kts 224°
2026-04-26 19:53 -1.28577 37.14516 15237 ft 326 kts 230°
2026-04-26 19:53 -1.29959 37.12724 15247 ft 325 kts 234°
2026-04-26 19:54 -1.31265 37.10880 15246 ft 325 kts 235°
2026-04-26 19:54 -1.32562 37.09030 15242 ft 325 kts 234°
2026-04-26 19:54 -1.33869 37.07185 15239 ft 325 kts 234°
2026-04-26 19:54 -1.35187 37.05345 15240 ft 325 kts 234°
2026-04-26 19:55 -1.36509 37.03515 15241 ft 325 kts 234°
2026-04-26 19:55 -1.37839 37.01683 15242 ft 326 kts 234°
2026-04-26 19:55 -1.39175 36.99850 15241 ft 326 kts 233°
2026-04-26 19:55 -1.40513 36.98020 15168 ft 325 kts 233°
2026-04-26 19:56 -1.41846 36.96197 14862 ft 324 kts 233°
2026-04-26 19:56 -1.43173 36.94382 14495 ft 323 kts 233°
2026-04-26 19:56 -1.44486 36.92589 14210 ft 314 kts 233°
2026-04-26 19:56 -1.45750 36.90866 13791 ft 304 kts 233°
2026-04-26 19:57 -1.46992 36.89166 13236 ft 302 kts 233°
2026-04-26 19:57 -1.48227 36.87473 12631 ft 300 kts 233°
2026-04-26 19:57 -1.49397 36.85764 12063 ft 297 kts 244°
2026-04-26 19:57 -1.49870 36.83805 11588 ft 288 kts 273°
2026-04-26 19:58 -1.49424 36.81920 11281 ft 274 kts 297°
2026-04-26 19:58 -1.48407 36.80363 10930 ft 264 kts 315°
2026-04-26 19:58 -1.47037 36.79189 10503 ft 257 kts 324°
2026-04-26 19:58 -1.45514 36.78292 9983 ft 253 kts 345°
2026-04-26 19:59 -1.43781 36.78199 9299 ft 252 kts 16°
2026-04-26 19:59 -1.42254 36.78973 8641 ft 246 kts 46°
2026-04-26 19:59 -1.41115 36.80212 8161 ft 238 kts 52°
2026-04-26 19:59 -1.40161 36.81451 7914 ft 210 kts 54°
2026-04-26 20:00 -1.39366 36.82551 7771 ft 184 kts 55°
2026-04-26 20:00 -1.38638 36.83558 7468 ft 175 kts 54°
2026-04-26 20:00 -1.37938 36.84522 7019 ft 164 kts 54°
2026-04-26 20:00 -1.37268 36.85444 6872 ft 167 kts 53°
2026-04-26 20:01 -1.36573 36.86399 6660 ft 172 kts 54°
2026-04-26 20:01 -1.35871 36.87367 6401 ft 172 kts 53°
2026-04-26 20:01 -1.35161 36.88339 6187 ft 174 kts 52°
2026-04-26 20:01 -1.34457 36.89310 5933 ft 170 kts 53°
2026-04-26 20:02 -1.33773 36.90259 5676 ft 166 kts 51°
2026-04-26 20:02 -1.33091 36.91186 5496 ft 165 kts 52°
2026-04-26 20:02 -1.32424 36.92097 5343 ft 159 kts 53°
2026-04-26 20:02 -1.32008 36.92662 5319 ft 135 kts 54°
2026-04-26 20:03 -1.31463 36.93410 5305 ft 74 kts 53°
2026-04-26 20:03 -1.31212 36.93753 5303 ft 35 kts 53°
2026-04-26 20:03 -1.31235 36.93873 5303 ft 18 kts 141°
2026-04-26 20:03 -1.31328 36.93941 5302 ft 15 kts 143°
2026-04-26 20:04 -1.31413 36.93990 5308 ft 13 kts 178°
2026-04-26 20:04 -1.31476 36.93946 5305 ft 10 kts 228°
2026-04-26 20:04 -1.31500 36.93915 5311 ft 0 kts 234°
2026-04-26 20:05 -1.31511 36.93900 5313 ft 10 kts 234°
2026-04-26 20:06 -1.31590 36.93792 5307 ft 25 kts 233°
2026-04-26 20:06 -1.31698 36.93645 5313 ft 25 kts 234°
2026-04-26 20:06 -1.31798 36.93509 5316 ft 24 kts 233°
2026-04-26 20:06 -1.31893 36.93379 5309 ft 22 kts 234°
2026-04-26 20:07 -1.31979 36.93261 5312 ft 20 kts 234°
2026-04-26 20:07 -1.32056 36.93156 5321 ft 18 kts 234°
2026-04-26 20:07 -1.32125 36.93060 5319 ft 16 kts 234°
2026-04-26 20:07 -1.32184 36.92979 5318 ft 13 kts 233°
2026-04-26 20:08 -1.32245 36.92897 5321 ft 17 kts 233°
2026-04-26 20:08 -1.32321 36.92793 5332 ft 20 kts 234°
2026-04-26 20:08 -1.32411 36.92669 5335 ft 24 kts 234°
2026-04-26 20:08 -1.32515 36.92527 5334 ft 25 kts 233°
2026-04-26 20:09 -1.32608 36.92400 5334 ft 20 kts 234°
2026-04-26 20:09 -1.32698 36.92366 5334 ft 15 kts 155°
2026-04-26 20:09 -1.32787 36.92371 5334 ft 13 kts 219°
2026-04-26 20:09 -1.32844 36.92304 5333 ft 12 kts 226°
2026-04-26 20:10 -1.32900 36.92269 5331 ft 5 kts 171°
2026-04-26 20:10 -1.32919 36.92288 5334 ft 7 kts 124°
2026-04-26 20:10 -1.32947 36.92332 5334 ft 6 kts 122°
2026-04-26 20:10 -1.32949 36.92336 5329 ft 0 kts 122°